La Veta Pass, CO

11:08 AM MST on January 19, 2018 (GMT -0700)
La Veta Pass

Weather History for KVTP - August, 2013

Change the Weather History Date:

Thursday, August 22, 2013

  Actual Average (KTAD) Record (KTAD)
Temperature  
Mean Temperature 57 °F -  
Max Temperature 68 °F 85 °F 95 °F (1949)
Min Temperature 46 °F 56 °F 44 °F (1964)
Degree Days  
Heating Degree Days 8    
Growing Degree Days 7 (Base 50)    
Moisture  
Dew Point 44 °F    
Average Humidity 66    
Maximum Humidity 93    
Minimum Humidity 46    
Precipitation  
Precipitation 0.00 in - - ()
Sea Level Pressure  
Sea Level Pressure 30.56 in    
Wind  
Wind Speed 9 mph (South)    
Max Wind Speed 16 mph    
Max Gust Speed 26 mph    
Visibility 10 miles    
Events Rain , Thunderstorm    
Averages and records for this station are not official NWS values.
T = Trace of Precipitation, MM = Missing Value Source: NWS Daily Summary

Daily Weather History Graph

Daily Weather History Graph

Search for Another Location

Airport or City:

Trip Planner

Search our weather history database for the weather conditions in past years. The results will help you decide how hot, cold, wet, or windy it might be!

Date:

Astronomy

Aug. 22, 2013 Rise Set
Actual Time 6:22 AM MDT 7:43 PM MDT
Civil Twilight 5:55 AM MDT 8:10 PM MDT
Nautical Twilight 5:22 AM MDT 8:43 PM MDT
Astronomical Twilight 4:48 AM MDT 9:17 PM MDT
Moon 8:33 PM MDT (8/22) 8:10 AM MDT (8/22)
Length of Visible Light 14h 15m
Length of Day
13h 20m
Waning Gibbous, 96% of the Moon is Illuminated
Aug 22
Waning Gibbous
Aug 28
Last Quarter
Sep 5
New
Sep 12
First Quarter
Sep 19
Full

Hourly Weather History & Observations

Time (MDT) Temp. Windchill Dew Point Humidity Pressure Visibility Wind Dir Wind Speed Gust Speed Precip Events Conditions
12:15 AM 50.0 °F - 44.6 °F 82% 30.58 in 5.0 mi SW 6.9 mph - N/A Rain Rain
12:35 AM 50.0 °F - 44.6 °F 82% 30.58 in 10.0 mi SW 16.1 mph 26.5 mph N/A   Overcast
12:54 AM 50.0 °F - 46.4 °F 87% 30.56 in 10.0 mi SW 15.0 mph 24.2 mph N/A Rain Rain
1:15 AM 50.0 °F - 46.4 °F 87% 30.56 in 10.0 mi SW 10.4 mph 21.9 mph N/A   Light Drizzle
1:35 AM 50.0 °F - 46.4 °F 87% 30.56 in 10.0 mi SW 13.8 mph 24.2 mph N/A   Light Drizzle
1:55 AM 50.0 °F - 46.4 °F 87% 30.55 in 10.0 mi SW 12.7 mph 21.9 mph N/A   Mostly Cloudy
2:14 AM 50.0 °F - 44.6 °F 82% 30.54 in 10.0 mi SW 16.1 mph 23.0 mph N/A   Mostly Cloudy
2:35 AM 50.0 °F - 44.6 °F 82% 30.54 in 10.0 mi SW 12.7 mph 24.2 mph N/A   Scattered Clouds
2:54 AM 50.0 °F - 44.6 °F 82% 30.54 in 10.0 mi SW 12.7 mph 19.6 mph N/A   Clear
3:15 AM 50.0 °F - 44.6 °F 82% 30.54 in 10.0 mi SW 8.1 mph 16.1 mph N/A   Clear
3:34 AM 50.0 °F - 44.6 °F 82% 30.52 in 10.0 mi SW 9.2 mph 17.3 mph N/A   Clear
3:55 AM 46.4 °F 41.1 °F 44.6 °F 93% 30.53 in 10.0 mi SSW 11.5 mph 20.7 mph N/A Thunderstorm Clear
4:15 AM 48.2 °F - 44.6 °F 87% 30.53 in 10.0 mi SW 10.4 mph 21.9 mph N/A   Clear
4:35 AM 50.0 °F - 44.6 °F 82% 30.53 in 10.0 mi SW 11.5 mph 18.4 mph N/A   Scattered Clouds
4:55 AM 50.0 °F - 42.8 °F 76% 30.54 in 10.0 mi SW 8.1 mph 17.3 mph N/A   Scattered Clouds
5:15 AM 48.2 °F - 42.8 °F 82% 30.54 in 10.0 mi SW 6.9 mph - N/A   Scattered Clouds
5:35 AM 50.0 °F - 42.8 °F 76% 30.54 in 10.0 mi SSW 6.9 mph - N/A   Mostly Cloudy
5:55 AM 50.0 °F - 42.8 °F 76% 30.55 in 10.0 mi SW 4.6 mph - N/A   Overcast
6:15 AM 50.0 °F - 42.8 °F 76% 30.56 in 10.0 mi SW 5.8 mph - N/A   Mostly Cloudy
6:35 AM 48.2 °F - 42.8 °F 82% 30.56 in 10.0 mi SW 5.8 mph - N/A   Scattered Clouds
6:51 AM 50.0 °F - 42.8 °F 76% 30.57 in 10.0 mi SW 4.6 mph - N/A   Scattered Clouds
7:15 AM 50.0 °F - 42.8 °F 76% 30.58 in 10.0 mi SW 3.5 mph - N/A   Clear
7:35 AM 51.8 °F - 44.6 °F 76% 30.59 in 10.0 mi SW 3.5 mph - N/A   Clear
7:55 AM 51.8 °F - 42.8 °F 71% 30.59 in 10.0 mi SW 5.8 mph - N/A   Clear
8:15 AM 53.6 °F - 44.6 °F 72% 30.59 in 10.0 mi SW 5.8 mph - N/A   Scattered Clouds
8:34 AM 57.2 °F - 44.6 °F 63% 30.60 in 10.0 mi WSW 3.5 mph - N/A   Mostly Cloudy
8:54 AM 59.0 °F - 46.4 °F 63% 30.61 in 10.0 mi Calm Calm - N/A   Mostly Cloudy
9:13 AM 57.2 °F - 44.6 °F 63% 30.61 in 10.0 mi Calm Calm - N/A   Scattered Clouds
9:34 AM 59.0 °F - 44.6 °F 59% 30.61 in 10.0 mi Calm Calm - N/A   Overcast
9:55 AM 59.0 °F - 44.6 °F 59% 30.61 in 10.0 mi Calm Calm - N/A   Mostly Cloudy
10:15 AM 62.6 °F - 44.6 °F 52% 30.61 in 10.0 mi Calm Calm - N/A   Overcast
10:35 AM 62.6 °F - 44.6 °F 52% 30.62 in 10.0 mi Calm Calm - N/A   Overcast
10:54 AM 62.6 °F - 44.6 °F 52% 30.61 in 10.0 mi Calm Calm - N/A   Overcast
11:13 AM 64.4 °F - 46.4 °F 52% 30.61 in 10.0 mi NE 4.6 mph - N/A Thunderstorm Overcast
11:35 AM 60.8 °F - 44.6 °F 55% 30.61 in 10.0 mi ESE 3.5 mph - N/A   Overcast
11:54 AM 62.6 °F - 46.4 °F 55% 30.61 in 10.0 mi SE 6.9 mph - N/A   Mostly Cloudy
12:13 PM 64.4 °F - 46.4 °F 52% 30.61 in 10.0 mi ESE 4.6 mph - N/A   Scattered Clouds
12:35 PM 60.8 °F - 46.4 °F 59% 30.60 in 10.0 mi South 3.5 mph - N/A   Scattered Clouds
12:54 PM 60.8 °F - 42.8 °F 52% 30.59 in 10.0 mi Calm Calm - N/A   Mostly Cloudy
1:15 PM 60.8 °F - 44.6 °F 55% 30.59 in 10.0 mi East 4.6 mph - N/A Thunderstorm Overcast
1:35 PM 62.6 °F - 46.4 °F 55% 30.58 in 10.0 mi ENE 5.8 mph - N/A   Overcast
1:55 PM 64.4 °F - 46.4 °F 52% 30.58 in 10.0 mi East 6.9 mph - N/A   Overcast
2:14 PM 64.4 °F - 46.4 °F 52% 30.58 in 10.0 mi ENE 8.1 mph - N/A Thunderstorm Mostly Cloudy
2:35 PM 68.0 °F - 46.4 °F 46% 30.57 in 10.0 mi East 9.2 mph - N/A   Scattered Clouds
2:54 PM 68.0 °F - 46.4 °F 46% 30.56 in 10.0 mi East 11.5 mph - N/A Thunderstorm Thunderstorm
3:15 PM 64.4 °F - 46.4 °F 52% 30.56 in 10.0 mi East 8.1 mph - N/A Thunderstorm Clear
3:35 PM 62.6 °F - 46.4 °F 55% 30.55 in 10.0 mi East 8.1 mph - N/A Thunderstorm Thunderstorm
3:54 PM 62.6 °F - 46.4 °F 55% 30.54 in 10.0 mi East 9.2 mph - N/A Thunderstorm Thunderstorm
4:15 PM 62.6 °F - 48.2 °F 59% 30.54 in 10.0 mi East 8.1 mph 16.1 mph N/A Thunderstorm Thunderstorm
4:35 PM 60.8 °F - 46.4 °F 59% 30.53 in 10.0 mi East 12.7 mph 18.4 mph N/A Thunderstorm Thunderstorm
4:54 PM 60.8 °F - 46.4 °F 59% 30.53 in 10.0 mi ENE 12.7 mph - N/A Thunderstorm Clear
5:15 PM 59.0 °F - 44.6 °F 59% 30.54 in 10.0 mi SSE 9.2 mph 18.4 mph N/A Thunderstorm Scattered Clouds
5:35 PM 57.2 °F - 42.8 °F 59% 30.54 in 10.0 mi East 11.5 mph 19.6 mph N/A Thunderstorm Unknown
5:55 PM 55.4 °F - 46.4 °F 72% 30.54 in 10.0 mi SE 12.7 mph 23.0 mph N/A Thunderstorm Unknown
6:15 PM 55.4 °F - 37.4 °F 51% 30.54 in 7.0 mi East 10.4 mph 23.0 mph N/A Rain , Thunderstorm Light Thunderstorms and Rain
6:35 PM 53.6 °F - 42.8 °F 67% 30.54 in 10.0 mi SE 11.5 mph 19.6 mph N/A Thunderstorm Unknown
6:55 PM 51.8 °F - 44.6 °F 76% 30.55 in 10.0 mi South 11.5 mph - N/A Rain , Thunderstorm Light Thunderstorms and Rain
7:15 PM 50.0 °F - 42.8 °F 76% 30.54 in 10.0 mi SW 15.0 mph - N/A Rain , Thunderstorm Light Thunderstorms and Rain
7:35 PM 51.8 °F - 42.8 °F 71% 30.52 in 10.0 mi WNW 3.5 mph - N/A Rain Light Rain
7:54 PM 53.6 °F - 39.2 °F 58% 30.51 in 10.0 mi Calm Calm - N/A Thunderstorm Thunderstorm
8:15 PM 55.4 °F - 37.4 °F 51% 30.52 in 10.0 mi Calm Calm - N/A   Overcast
8:34 PM 57.2 °F - 37.4 °F 48% 30.52 in 10.0 mi SW 8.1 mph - N/A   Mostly Cloudy
8:54 PM 55.4 °F - 39.2 °F 54% 30.53 in 10.0 mi SW 15.0 mph 20.7 mph N/A Thunderstorm Thunderstorm
9:13 PM 53.6 °F - 41.0 °F 62% 30.52 in 10.0 mi SW 15.0 mph 20.7 mph N/A   Scattered Clouds
9:34 PM 53.6 °F - 42.8 °F 67% 30.54 in 10.0 mi SW 10.4 mph - N/A   Clear
9:55 PM 53.6 °F - 41.0 °F 62% 30.56 in 10.0 mi SW 8.1 mph - N/A   Scattered Clouds
10:13 PM 53.6 °F - 37.4 °F 54% 30.56 in 10.0 mi South 4.6 mph - N/A   Overcast
10:35 PM 55.4 °F - 37.4 °F 51% 30.56 in 10.0 mi SSE 9.2 mph - N/A   Overcast
10:54 PM 57.2 °F - 41.0 °F 55% 30.56 in 10.0 mi SE 9.2 mph - N/A Thunderstorm Overcast
11:15 PM 53.6 °F - 41.0 °F 62% 30.56 in 10.0 mi ENE 9.2 mph - N/A   Mostly Cloudy
11:35 PM 51.8 °F - 42.8 °F 71% 30.56 in 10.0 mi ENE 8.1 mph - N/A   Scattered Clouds
11:55 PM 48.2 °F - 44.6 °F 87% 30.58 in 1.5 mi ESE 10.4 mph - N/A   Overcast